AAL857 MKJS-KPHL

Flight info

Callsign AAL857
Flight time N/A
Altitude 35000
Route ALTIB UM779 ZEUSS/N0455F350 Y329 ZFP BR65V ADOOR M202 ETECK GRUBR OSTNN AR3 GARIC ZORDO BBDOL PAATS4
Aircraft A321/M-SDE3FGHIRWY/LB1

Departure

Time N/A
Airport Sangster International Airport (MKJS)

Arrival

Time 2026-05-03 21:46
Airport Philadelphia International Airport (KPHL)
Time Latitude Longitude Altitude Speed Heading
2026-05-03 20:15 30.69594 -78.46517 35147 ft 495 kts 356°
2026-05-03 20:15 30.75306 -78.45526 35139 ft 495 kts 356°
2026-05-03 20:16 30.82031 -78.44353 35116 ft 491 kts 356°
2026-05-03 20:16 30.88793 -78.43176 35124 ft 492 kts 356°
2026-05-03 20:17 30.95565 -78.42007 35134 ft 492 kts 356°
2026-05-03 20:17 31.02350 -78.40837 35176 ft 493 kts 356°
2026-05-03 20:18 31.09141 -78.39651 35160 ft 494 kts 356°
2026-05-03 20:18 31.15937 -78.38453 35162 ft 494 kts 356°
2026-05-03 20:19 31.22733 -78.37264 35163 ft 494 kts 356°
2026-05-03 20:19 31.29534 -78.36077 35150 ft 494 kts 356°
2026-05-03 20:20 31.36326 -78.34879 35141 ft 494 kts 356°
2026-05-03 20:20 31.43125 -78.33680 35145 ft 494 kts 356°
2026-05-03 20:21 31.49930 -78.32487 35150 ft 495 kts 356°
2026-05-03 20:21 31.56745 -78.31290 35148 ft 495 kts 356°
2026-05-03 20:22 31.63551 -78.30088 35146 ft 495 kts 356°
2026-05-03 20:22 31.70366 -78.28874 35148 ft 496 kts 356°
2026-05-03 20:23 31.77191 -78.27668 35155 ft 496 kts 356°
2026-05-03 20:23 31.84023 -78.26465 35186 ft 497 kts 356°
2026-05-03 20:24 31.90863 -78.25248 35175 ft 497 kts 356°
2026-05-03 20:24 31.97706 -78.24030 35174 ft 497 kts 356°
2026-05-03 20:25 32.04548 -78.22814 35172 ft 497 kts 356°
2026-05-03 20:25 32.11384 -78.21595 35141 ft 494 kts 356°
2026-05-03 20:26 32.18164 -78.20380 35148 ft 493 kts 356°
2026-05-03 20:26 32.24904 -78.19185 35151 ft 494 kts 356°
2026-05-03 20:27 32.31706 -78.17964 35161 ft 495 kts 356°
2026-05-03 20:27 32.38512 -78.16740 35185 ft 495 kts 355°
2026-05-03 20:28 32.45315 -78.15518 35184 ft 494 kts 355°
2026-05-03 20:28 32.52112 -78.14299 35179 ft 494 kts 356°
2026-05-03 20:29 32.58911 -78.13070 35178 ft 494 kts 356°
2026-05-03 20:29 32.65671 -78.11839 35147 ft 489 kts 355°
2026-05-03 20:30 32.72393 -78.10624 35151 ft 489 kts 355°
2026-05-03 20:30 32.79124 -78.09420 35157 ft 490 kts 355°
2026-05-03 20:31 32.85864 -78.08196 35162 ft 490 kts 355°
2026-05-03 20:31 32.92612 -78.06968 35167 ft 491 kts 355°
2026-05-03 20:32 32.99365 -78.05740 35172 ft 491 kts 355°
2026-05-03 20:32 33.06077 -78.04515 35174 ft 491 kts 355°
2026-05-03 20:33 33.12830 -78.03285 35181 ft 490 kts 355°
2026-05-03 20:33 33.19518 -78.02059 35131 ft 485 kts 355°
2026-05-03 20:34 33.26188 -78.00836 35142 ft 486 kts 355°
2026-05-03 20:34 33.32873 -77.99614 35146 ft 486 kts 355°
2026-05-03 20:35 33.39572 -77.98393 35187 ft 487 kts 355°
2026-05-03 20:35 33.46269 -77.97160 35179 ft 487 kts 355°
2026-05-03 20:36 33.52952 -77.96124 35158 ft 473 kts 347°
2026-05-03 20:36 33.59408 -77.96432 35165 ft 463 kts 342°
2026-05-03 20:37 33.65841 -77.96842 35141 ft 461 kts 343°
2026-05-03 20:37 33.72211 -77.97214 35123 ft 458 kts 343°
2026-05-03 20:38 33.78577 -77.97602 35113 ft 459 kts 343°
2026-05-03 20:38 33.84964 -77.97995 35120 ft 460 kts 343°
2026-05-03 20:38 33.88192 -77.98039 35123 ft 473 kts 351°
2026-05-03 20:39 33.91500 -77.97584 35164 ft 480 kts 354°
2026-05-03 20:39 33.98126 -77.96535 35148 ft 480 kts 354°
2026-05-03 20:40 34.04749 -77.95475 35131 ft 480 kts 354°
2026-05-03 20:40 34.11369 -77.94436 35138 ft 480 kts 354°
2026-05-03 20:41 34.17985 -77.93397 35131 ft 477 kts 354°
2026-05-03 20:41 34.24561 -77.92352 35128 ft 476 kts 354°
2026-05-03 20:42 34.31135 -77.91325 35134 ft 477 kts 354°
2026-05-03 20:42 34.37714 -77.90297 35138 ft 477 kts 354°
2026-05-03 20:43 34.44284 -77.89265 35135 ft 474 kts 355°
2026-05-03 20:43 34.50825 -77.88218 35126 ft 474 kts 355°
2026-05-03 20:44 34.57368 -77.87175 35125 ft 474 kts 355°
2026-05-03 20:44 34.63914 -77.86144 35136 ft 475 kts 355°
2026-05-03 20:45 34.70432 -77.85108 35107 ft 471 kts 355°
2026-05-03 20:45 34.76927 -77.84068 35110 ft 471 kts 355°
2026-05-03 20:46 34.83427 -77.83029 35122 ft 471 kts 355°
2026-05-03 20:46 34.89863 -77.82516 35164 ft 457 kts 347°
2026-05-03 20:47 34.96163 -77.82575 35139 ft 456 kts 347°
2026-05-03 20:47 35.02547 -77.82628 35134 ft 456 kts 347°
2026-05-03 20:48 35.08850 -77.82675 35129 ft 456 kts 347°
2026-05-03 20:48 35.15197 -77.82725 35158 ft 456 kts 347°
2026-05-03 20:49 35.21521 -77.82769 35134 ft 454 kts 347°
2026-05-03 20:49 35.27836 -77.82827 35134 ft 454 kts 347°
2026-05-03 20:50 35.34157 -77.82875 35136 ft 455 kts 347°
2026-05-03 20:50 35.40488 -77.82909 35119 ft 455 kts 347°
2026-05-03 20:51 35.46814 -77.82958 35117 ft 455 kts 347°
2026-05-03 20:51 35.53142 -77.83009 35118 ft 455 kts 347°
2026-05-03 20:52 35.59470 -77.83053 35123 ft 455 kts 347°
2026-05-03 20:52 35.65799 -77.83102 35127 ft 454 kts 348°
2026-05-03 20:53 35.72079 -77.83146 35115 ft 451 kts 348°
2026-05-03 20:53 35.78358 -77.83205 35116 ft 451 kts 347°
2026-05-03 20:54 35.84639 -77.83270 35121 ft 452 kts 348°
2026-05-03 20:54 35.94080 -77.83334 35145 ft 453 kts 348°
2026-05-03 20:55 36.00375 -77.83373 35136 ft 452 kts 348°
2026-05-03 20:55 36.06666 -77.83423 35133 ft 452 kts 348°
2026-05-03 20:56 36.12954 -77.83475 35189 ft 452 kts 348°
2026-05-03 20:56 36.19192 -77.83513 35107 ft 445 kts 348°
2026-05-03 20:57 36.25382 -77.83554 35091 ft 445 kts 348°
2026-05-03 20:57 36.31577 -77.83610 35098 ft 446 kts 348°
2026-05-03 20:58 36.37789 -77.83660 35145 ft 447 kts 348°
2026-05-03 20:58 36.44004 -77.83706 35145 ft 446 kts 348°
2026-05-03 20:59 36.50213 -77.83758 35131 ft 446 kts 348°
2026-05-03 20:59 36.56412 -77.83816 35145 ft 446 kts 348°
2026-05-03 21:00 36.60521 -77.83848 35148 ft 446 kts 348°
2026-05-03 21:00 36.68773 -77.83911 35133 ft 441 kts 348°
2026-05-03 21:01 36.73877 -77.83956 35130 ft 441 kts 348°
2026-05-03 21:01 36.80021 -77.83997 35128 ft 442 kts 348°
2026-05-03 21:02 36.86174 -77.84038 35132 ft 442 kts 348°
2026-05-03 21:02 36.92317 -77.84090 35110 ft 441 kts 348°
2026-05-03 21:03 36.98450 -77.84144 35097 ft 441 kts 348°
2026-05-03 21:03 37.04585 -77.84187 35092 ft 441 kts 348°
2026-05-03 21:04 37.10715 -77.84231 35099 ft 440 kts 348°
2026-05-03 21:04 37.16803 -77.84284 35073 ft 436 kts 348°
2026-05-03 21:05 37.22871 -77.84337 35076 ft 436 kts 348°
2026-05-03 21:05 37.28951 -77.84384 35096 ft 437 kts 348°
2026-05-03 21:06 37.34999 -77.84420 35129 ft 438 kts 348°
2026-05-03 21:06 37.41096 -77.84465 35127 ft 438 kts 348°
2026-05-03 21:07 37.47196 -77.84517 35121 ft 438 kts 348°
2026-05-03 21:07 37.53294 -77.84570 35120 ft 438 kts 348°
2026-05-03 21:08 37.59405 -77.84551 35110 ft 444 kts 354°
2026-05-03 21:08 37.62489 -77.83891 35098 ft 458 kts
2026-05-03 21:08 37.65518 -77.82449 35091 ft 474 kts 17°
2026-05-03 21:09 37.68358 -77.80207 35081 ft 489 kts 28°
2026-05-03 21:09 37.71082 -77.77620 35081 ft 491 kts 28°
2026-05-03 21:09 37.76542 -77.72420 35078 ft 492 kts 28°
2026-05-03 21:10 37.82009 -77.67217 35085 ft 493 kts 28°
2026-05-03 21:10 37.87483 -77.61980 35090 ft 493 kts 28°
2026-05-03 21:11 37.92948 -77.56719 35097 ft 494 kts 28°
2026-05-03 21:11 37.98424 -77.51450 35085 ft 495 kts 28°
2026-05-03 21:12 38.03908 -77.46163 35107 ft 495 kts 28°
2026-05-03 21:12 38.09412 -77.40929 35088 ft 492 kts 26°
2026-05-03 21:13 38.15065 -77.36091 35076 ft 488 kts 23°
2026-05-03 21:13 38.20784 -77.31435 35132 ft 488 kts 23°
2026-05-03 21:14 38.26415 -77.26737 35037 ft 481 kts 24°
2026-05-03 21:14 38.31977 -77.21988 35034 ft 482 kts 24°
2026-05-03 21:15 38.37542 -77.17182 35042 ft 487 kts 28°
2026-05-03 21:15 38.40145 -77.14345 35043 ft 499 kts 37°
2026-05-03 21:15 38.42583 -77.11170 35096 ft 501 kts 37°
2026-05-03 21:16 38.47455 -77.04814 35096 ft 501 kts 37°
2026-05-03 21:16 38.52330 -76.98445 35101 ft 501 kts 37°
2026-05-03 21:17 38.56377 -76.93154 35100 ft 501 kts 37°
2026-05-03 21:17 38.62070 -76.85696 35133 ft 501 kts 38°
2026-05-03 21:18 38.66857 -76.79374 35071 ft 498 kts 40°
2026-05-03 21:18 38.70810 -76.71844 35033 ft 517 kts 60°
2026-05-03 21:19 38.72053 -76.67499 35036 ft 523 kts 71°
2026-05-03 21:19 38.72995 -76.62992 35040 ft 524 kts 71°
2026-05-03 21:19 38.74853 -76.53999 34772 ft 517 kts 71°
2026-05-03 21:20 38.75766 -76.49567 34353 ft 515 kts 71°
2026-05-03 21:20 38.76685 -76.45123 33705 ft 516 kts 70°
2026-05-03 21:20 38.77605 -76.40691 33155 ft 514 kts 70°
2026-05-03 21:20 38.78522 -76.36274 32591 ft 512 kts 70°
2026-05-03 21:21 38.79438 -76.31862 32010 ft 511 kts 71°
2026-05-03 21:21 38.80346 -76.27469 31457 ft 509 kts 71°
2026-05-03 21:21 38.81241 -76.23102 30957 ft 505 kts 71°
2026-05-03 21:21 38.82117 -76.18813 30556 ft 500 kts 71°
2026-05-03 21:22 38.83002 -76.14472 29988 ft 492 kts 71°
2026-05-03 21:22 38.83859 -76.10262 29105 ft 482 kts 71°
2026-05-03 21:22 38.84688 -76.06176 28760 ft 465 kts 71°
2026-05-03 21:22 38.85494 -76.02206 28329 ft 458 kts 71°
2026-05-03 21:23 38.86288 -75.98322 27898 ft 454 kts 71°
2026-05-03 21:23 38.87081 -75.94416 27480 ft 451 kts 71°
2026-05-03 21:23 38.87880 -75.90532 27060 ft 447 kts 68°
2026-05-03 21:23 38.89009 -75.86873 26651 ft 437 kts 56°
2026-05-03 21:24 38.90586 -75.83601 26240 ft 425 kts 45°
2026-05-03 21:24 38.92551 -75.80780 25834 ft 412 kts 34°
2026-05-03 21:24 38.94752 -75.78518 25453 ft 402 kts 27°
2026-05-03 21:24 38.97010 -75.76412 25039 ft 400 kts 27°
2026-05-03 21:25 38.99221 -75.74340 24631 ft 398 kts 28°
2026-05-03 21:25 39.01447 -75.72240 24227 ft 396 kts 28°
2026-05-03 21:25 39.03664 -75.70162 23791 ft 392 kts 25°
2026-05-03 21:25 39.06026 -75.68538 23304 ft 379 kts 13°
2026-05-03 21:26 39.08501 -75.67605 22875 ft 363 kts
2026-05-03 21:26 39.10967 -75.67257 22465 ft 353 kts 356°
2026-05-03 21:26 39.13403 -75.66997 22061 ft 349 kts 356°
2026-05-03 21:26 39.15810 -75.66734 21660 ft 346 kts 356°
2026-05-03 21:27 39.18197 -75.66472 21252 ft 342 kts 356°
2026-05-03 21:27 39.20554 -75.66215 20854 ft 338 kts 356°
2026-05-03 21:27 39.22887 -75.65964 20465 ft 335 kts 356°
2026-05-03 21:27 39.25193 -75.65714 20070 ft 331 kts 356°
2026-05-03 21:28 39.27483 -75.65292 19647 ft 337 kts
2026-05-03 21:28 39.29697 -75.64191 19217 ft 347 kts 20°
2026-05-03 21:28 39.31744 -75.62497 18768 ft 351 kts 26°
2026-05-03 21:28 39.33763 -75.60729 18323 ft 350 kts 26°
2026-05-03 21:29 39.35778 -75.58970 17888 ft 348 kts 26°
2026-05-03 21:29 39.37680 -75.57028 17425 ft 353 kts 38°
2026-05-03 21:29 39.39213 -75.54507 17012 ft 360 kts 53°
2026-05-03 21:29 39.40258 -75.51552 16575 ft 363 kts 64°
2026-05-03 21:30 39.41160 -75.48506 16126 ft 362 kts 64°
2026-05-03 21:30 39.42060 -75.45482 15692 ft 359 kts 64°
2026-05-03 21:30 39.42958 -75.42474 15254 ft 358 kts 64°
2026-05-03 21:30 39.43855 -75.39478 14821 ft 356 kts 64°
2026-05-03 21:31 39.44749 -75.36497 14384 ft 355 kts 64°
2026-05-03 21:31 39.45694 -75.33559 13959 ft 350 kts 56°
2026-05-03 21:31 39.47030 -75.31008 13542 ft 338 kts 42°
2026-05-03 21:31 39.48736 -75.28992 13152 ft 325 kts 28°
2026-05-03 21:32 39.50603 -75.27403 12790 ft 319 kts 26°
2026-05-03 21:32 39.52450 -75.25840 12426 ft 315 kts 27°
2026-05-03 21:32 39.54271 -75.24287 12060 ft 312 kts 27°
2026-05-03 21:32 39.56075 -75.22743 11698 ft 309 kts 27°
2026-05-03 21:33 39.57851 -75.21218 11342 ft 305 kts 27°
2026-05-03 21:33 39.59616 -75.19697 10975 ft 302 kts 27°
2026-05-03 21:33 39.61350 -75.18205 10725 ft 295 kts 27°
2026-05-03 21:33 39.63043 -75.16749 10506 ft 288 kts 27°
2026-05-03 21:34 39.64713 -75.15318 10126 ft 287 kts 27°
2026-05-03 21:34 39.66371 -75.13897 9717 ft 283 kts 27°
2026-05-03 21:34 39.68001 -75.12497 9271 ft 278 kts 27°
2026-05-03 21:34 39.69590 -75.11128 8924 ft 270 kts 27°
2026-05-03 21:35 39.71148 -75.09787 8582 ft 270 kts 27°
2026-05-03 21:35 39.72718 -75.08406 8235 ft 276 kts 32°
2026-05-03 21:35 39.74101 -75.06643 7914 ft 281 kts 41°
2026-05-03 21:35 39.75416 -75.04766 7575 ft 280 kts 41°
2026-05-03 21:36 39.76725 -75.02902 7235 ft 278 kts 41°
2026-05-03 21:36 39.78029 -75.01047 6906 ft 277 kts 41°
2026-05-03 21:36 39.79325 -74.99201 6572 ft 276 kts 41°
2026-05-03 21:36 39.80611 -74.97374 6241 ft 275 kts 41°
2026-05-03 21:37 39.81905 -74.95534 5886 ft 274 kts 41°
2026-05-03 21:37 39.83096 -74.93598 5539 ft 277 kts 53°
2026-05-03 21:37 39.83910 -74.91315 5204 ft 281 kts 69°
2026-05-03 21:37 39.84418 -74.88850 4872 ft 282 kts 71°
2026-05-03 21:38 39.85020 -74.86449 4528 ft 275 kts 54°
2026-05-03 21:38 39.86321 -74.84794 4184 ft 255 kts 19°
2026-05-03 21:38 39.87946 -74.84503 3847 ft 225 kts 341°
2026-05-03 21:38 39.89142 -74.85539 3533 ft 200 kts 301°
2026-05-03 21:39 39.89546 -74.87198 3398 ft 186 kts 284°
2026-05-03 21:39 39.89832 -74.88728 3269 ft 162 kts 287°
2026-05-03 21:39 39.90137 -74.90123 3144 ft 163 kts 288°
2026-05-03 21:39 39.90477 -74.91543 3013 ft 164 kts 289°
2026-05-03 21:40 39.90835 -74.92947 2934 ft 162 kts 290°
2026-05-03 21:40 39.91206 -74.94339 2989 ft 163 kts 291°
2026-05-03 21:40 39.91591 -74.95728 2987 ft 164 kts 291°
2026-05-03 21:40 39.91984 -74.97138 2987 ft 166 kts 288°
2026-05-03 21:41 39.92097 -74.98620 2984 ft 168 kts 265°
2026-05-03 21:41 39.91868 -75.00121 2912 ft 170 kts 262°
2026-05-03 21:41 39.91599 -75.01619 2779 ft 167 kts 261°
2026-05-03 21:41 39.91334 -75.02998 2633 ft 150 kts 261°
2026-05-03 21:42 39.91084 -75.04282 2511 ft 143 kts 262°
2026-05-03 21:42 39.90840 -75.05528 2380 ft 141 kts 262°
2026-05-03 21:42 39.90598 -75.06760 2284 ft 139 kts 260°
2026-05-03 21:42 39.90356 -75.07993 2198 ft 140 kts 260°
2026-05-03 21:43 39.90113 -75.09221 2047 ft 141 kts 261°
2026-05-03 21:43 39.89868 -75.10460 1871 ft 142 kts 261°
2026-05-03 21:43 39.89623 -75.11697 1690 ft 140 kts 260°
2026-05-03 21:43 39.89381 -75.12919 1500 ft 139 kts 260°
2026-05-03 21:44 39.89139 -75.14139 1310 ft 139 kts 259°
2026-05-03 21:44 39.88898 -75.15356 1122 ft 139 kts 262°
2026-05-03 21:44 39.88659 -75.16567 930 ft 138 kts 261°
2026-05-03 21:44 39.88409 -75.17771 789 ft 139 kts 260°
2026-05-03 21:45 39.88162 -75.19005 589 ft 140 kts 259°
2026-05-03 21:45 39.87988 -75.19814 475 ft 142 kts 257°
2026-05-03 21:45 39.87754 -75.21047 280 ft 143 kts 258°
2026-05-03 21:45 39.87516 -75.22273 87 ft 138 kts 258°
2026-05-03 21:46 39.87304 -75.23415 27 ft 114 kts 247°
2026-05-03 21:46 39.87141 -75.24202 29 ft 66 kts 255°
2026-05-03 21:46 39.87069 -75.24563 28 ft 31 kts 255°
2026-05-03 21:46 39.87019 -75.24818 25 ft 27 kts 256°
2026-05-03 21:47 39.87000 -75.25021 25 ft 21 kts 275°
2026-05-03 21:47 39.87025 -75.25186 27 ft 15 kts 292°
2026-05-03 21:47 39.87092 -75.25227 29 ft 10 kts 332°
2026-05-03 21:47 39.87109 -75.25306 25 ft 10 kts 263°
2026-05-03 21:48 39.87153 -75.25363 25 ft 10 kts 340°
2026-05-03 21:48 39.87224 -75.25388 27 ft 9 kts 354°
2026-05-03 21:48 39.87234 -75.25364 28 ft 4 kts 98°
2026-05-03 21:48 39.87238 -75.25309 25 ft 4 kts 73°
2026-05-03 21:49 39.87242 -75.25291 26 ft 0 kts 73°